Location: *
(49.8044°N, 4.0558°E)
Time: 22:56:14
(UTC+00:00)

Cosmos 2344 - Pass Details

Date: 09 April 2020
Orbit: 1251 x 2991 km, 63.3° (Epoch: 23 May)

Event Time Altitude Azimuth Distance (km) Brightness Sun altitude
Rises 22:23:00 0° 316° (NW) 4,603 7.5 -29.5°
Reaches altitude 10° 22:25:37 10° 315° (NW) 3,762 6.8 -29.6°
Maximum altitude 22:35:04 75° 233° (SW) 1,986 4.3 -30.2°
Enters shadow 22:38:41 52° 164° (SSE) 2,485 4.6 -30.4°
